This is the latest recevied weather packets stored in our database for station/object Reichnbch. If no packets are shown the sender has not sent any weather packets the latest 1 day(s).
| Time | Temp. | Humidity | Pressure | Rain* | Wind** | Luminosity | Snow |
|---|---|---|---|---|---|---|---|
| 1836273905 | 12.22° C | 80% | 1021.9 hPa | 0 mm | 0 m/s | - | - |
| 1778032932 | 8.89° C | 76% | 1008.9 hPa | 0.25 mm | 0 m/s | - | - |
| 1778031131 | 8.89° C | 76% | 1009 hPa | 0.25 mm | 0.89 m/s, 15° | - | - |
| 1778029332 | 8.89° C | 76% | 1009 hPa | 0 mm | 0 m/s | - | - |
| 1778027529 | 9.44° C | 76% | 1009 hPa | 0 mm | 0.89 m/s, 118° | - | - |
| 1778025729 | 9.44° C | 76% | 1009.5 hPa | 0 mm | 0 m/s | - | - |
| 1778023929 | 10.56° C | 76% | 1009.7 hPa | 0 mm | 0 m/s | - | - |
| 1778022129 | 11.11° C | 75% | 1009.6 hPa | 0 mm | 2.24 m/s, 283° | - | - |
| 1778020330 | 11.11° C | 76% | 1009.6 hPa | 0 mm | 0.89 m/s, 336° | - | - |
| 1778018529 | 11.67° C | 76% | 1009.5 hPa | 0 mm | 1.79 m/s, 337° | - | - |
| 1778016731 | 11.67° C | 76% | 1009.6 hPa | 4.57 mm | 0.89 m/s, 15° | - | - |
| 1778014935 | 12.22° C | 76% | 1009.7 hPa | 4.57 mm | 1.34 m/s, 332° | - | - |
| 1778013129 | 12.22° C | 77% | 1009.4 hPa | 4.57 mm | 1.34 m/s, 360° | - | - |
| 1778011330 | 12.78° C | 77% | 1009 hPa | 4.57 mm | 1.79 m/s, 290° | - | - |
| 1778009529 | 12.78° C | 77% | 1008.7 hPa | 4.57 mm | 2.24 m/s, 350° | - | - |
| 1778007735 | 12.78° C | 77% | 1008.6 hPa | 4.57 mm | 0.45 m/s, 113° | - | - |
| 1778005932 | 13.33° C | 78% | 1008.5 hPa | 4.32 mm | 0.45 m/s, 113° | - | - |
| 1778004131 | 13.89° C | 78% | 1008.3 hPa | 4.32 mm | 0 m/s | - | - |
| 1778002330 | 13.89° C | 80% | 1008.6 hPa | 3.56 mm | 0 m/s | - | - |
| 1778000530 | 14.44° C | 81% | 1008.2 hPa | 3.56 mm | 0 m/s | - | - |
| 1777998731 | 14.44° C | 81% | 1008.2 hPa | 3.3 mm | 0 m/s | - | - |
| 1777995130 | 14.44° C | 77% | 1008.2 hPa | 3.3 mm | 0.89 m/s, 149° | - | - |
| 1777993336 | 13.89° C | 78% | 1008.7 hPa | 3.3 mm | 0.45 m/s, 86° | - | - |
| 1777991532 | 13.33° C | 78% | 1008.8 hPa | 3.3 mm | 1.34 m/s, 346° | - | - |
| 1777989730 | 13.33° C | 80% | 1009.2 hPa | 3.05 mm | 2.24 m/s, 5° | - | - |
* Rain since midnight (hover to see other rain measurements)
** Current wind speed in m/s (hover to see current wind gust speed)